Location: maison
(44.0032°N, 4.9445°E)
Time: 07:08:59
(UTC+01:00)

N. Korean satellite - Visible Passes

Search period start: 29 October 2020 00:00
Search period end: 08 November 2020 00:00
Orbit: 452 x 505 km, 97.2° (Epoch: 28 October)

Date Brightness Start Highest point End Pass type
(mag) Time Alt. Az. Time Alt. Az. Time Alt. Az.
29 Oct 9.0 05:34:56 10° NE 05:37:45 23° E 05:40:33 10° SSE visible
30 Oct 10.1 05:10:12 10° ENE 05:11:25 11° E 05:12:39 10° ESE visible
30 Oct 6.8 06:41:45 10° N 06:45:00 41° WNW 06:48:13 10° SW visible
31 Oct 6.5 06:15:28 10° NNE 06:18:54 85° ESE 06:22:19 10° SSW visible
31 Oct 10.0 18:26:43 10° SW 18:28:39 14° W 18:30:35 10° WNW visible
01 Nov 8.1 05:49:31 10° NNE 05:52:43 36° E 05:55:54 10° SSE visible
01 Nov 9.0 17:59:16 10° SSW 18:02:21 28° W 18:05:25 10° NW visible
02 Nov 9.5 05:24:03 10° NE 05:26:26 17° E 05:28:48 10° SE visible
03 Nov 6.4 06:30:23 10° N 06:33:45 59° WNW 06:37:07 10° SSW visible
04 Nov 7.1 06:04:12 10° NNE 06:07:36 59° E 06:11:00 10° S visible
04 Nov 9.7 18:14:46 10° SW 18:17:17 19° W 18:19:48 10° NW visible
05 Nov 8.8 05:38:24 10° NE 05:41:21 26° E 05:44:19 10° SSE visible
06 Nov 10.0 05:13:20 10° ENE 05:15:01 13° E 05:16:42 10° ESE visible
06 Nov 7.0 06:45:20 10° N 06:48:32 37° WNW 06:51:44 10° SW visible
07 Nov 6.4 06:18:58 10° N 06:22:25 84° WNW 06:25:53 10° SSW visible
07 Nov 10.1 18:30:44 10° WSW 18:32:13 12° W 18:33:41 10° WNW visible
